Location: *
(60.6458°N, 46.5964°E)
Time: 05:07:14
(UTC+00:00)

Daily predictions for brighter satellites

Satellite Brightness Start Highest point End
(mag) Time Altitude Azimuth Time Altitude Azimuth Time Altitude Azimuth
Cosmos 1782 3.9 00:00:47 11° SSE 00:04:20 43° E 00:08:07 10° NNE
Lacrosse 5 rocket 3.3 00:07:11 15° S 00:07:11 15° S 00:08:22 10° SSE
IRIDIUM 114 4.3 00:01:13 17° S 00:05:19 90° NW 00:10:35 10° N
NPP 4.0 00:00:19 10° NNE 00:05:34 53° WNW 00:08:19 27° SW
ERS-1 4.5 00:00:41 10° NNE 00:05:48 87° ESE 00:09:21 21° SSW
Meteor 1-25 Rocket 4.3 00:00:49 10° NNW 00:06:28 56° W 00:11:34 12° S
CZ-2D R/B 2.5 00:02:41 10° NNE 00:07:49 49° WNW 00:10:27 26° WSW
Cosmos 1943 Rocket 3.3 00:03:18 11° S 00:08:08 39° ESE 00:13:16 10° NE
Cosmos 1570 Rocket 4.0 00:08:23 27° SW 00:11:20 76° NW 00:16:42 10° NNE
Cosmos 1356 Rocket 3.8 00:11:58 32° WSW 00:13:28 47° WNW 00:17:25 10° N
Cosmos 1515 Rocket 3.7 00:12:18 29° SW 00:14:19 57° WNW 00:18:43 10° N
IRIDIUM 103 4.3 00:10:21 17° S 00:14:29 80° W 00:19:45 10° N
Cosmos 1733 Rocket 3.4 00:10:21 10° NNW 00:14:49 70° ENE 00:19:16 10° SSE
Meteor 1-14 Rocket 4.2 00:10:09 10° NNW 00:15:38 61° W 00:21:05 10° S
ATLAS 5 CENTAUR R/B 1.8 00:14:34 27° WSW 00:17:13 86° NNW 00:22:40 10° ENE
IRS-1C 4.1 00:12:05 10° NNE 00:17:26 70° WNW 00:21:00 21° SW
USA 238 DEB 4.2 00:13:07 18° SSW 00:18:04 54° SE 00:24:52 10° ENE
USA 238 4.2 00:13:12 18° SSW 00:18:10 53° SE 00:24:59 10° ENE
Meteor 1-5 Rocket 4.3 00:17:10 10° NNW 00:22:34 76° ENE 00:28:05 10° SSE
ARIANE 5 R/B 2.5 00:18:02 10° NNE 00:23:14 78° WNW 00:27:04 18° SSW
Nadezhda 4 Rocket 4.0 00:19:03 10° S 00:25:12 83° E 00:31:21 10° NNE
Cosmos 540 Rocket 3.5 00:24:07 19° SSW 00:27:50 86° ESE 00:33:03 10° NE
Cosmos 1763 Rocket 3.7 00:26:17 23° SW 00:29:38 61° NW 00:34:57 10° NNE
Cosmos 1536 3.9 00:25:49 10° N 00:29:43 48° ENE 00:33:35 10° SE
SWARM A 4.3 00:26:48 10° N 00:30:05 54° W 00:32:05 21° SSW
Meteor 1-26 Rocket 4.2 00:27:16 12° SSW 00:32:23 89° WNW 00:38:01 10° NNE
IRIDIUM 106 4.4 00:28:34 15° SSW 00:32:49 62° WNW 00:38:02 10° N
SeaSat 1 4.2 00:29:13 10° NE 00:33:30 28° ESE 00:37:45 10° S
Cosmos 468 Rocket 4.5 00:32:06 21° WSW 00:35:30 50° NW 00:40:42 10° NNE
Lacrosse 5 2.2 00:32:19 18° W 00:35:40 43° SSW 00:40:27 10° SE
PSLV R/B 3.8 00:32:57 10° S 00:37:05 68° WSW 00:41:12 10° NNW
Cosmos 1346 Rocket 3.4 00:33:04 10° NNW 00:37:10 64° ENE 00:41:15 10° SSE
Cosmos 2084 3.9 00:34:20 20° SW 00:37:14 57° SE 00:41:33 10° ENE
Cosmos 1869 Rocket 4.2 00:33:11 10° NNW 00:37:19 36° W 00:40:30 15° SSW
Cosmos 1553 Rocket 4.3 00:32:16 10° NNW 00:38:40 75° ENE 00:44:53 10° SSE
CZ-2C R/B 2.8 00:34:46 10° NNE 00:38:51 86° WNW 00:42:21 13° SSW
Cosmos 1666 4.4 00:35:56 10° N 00:39:27 36° ENE 00:42:57 10° SE
Cosmos 1844 Rocket 4.1 00:34:28 10° WNW 00:39:31 31° NNW 00:44:34 10° NE
Cosmos 1125 Rocket 4.3 00:40:40 10° NW 00:45:13 29° WSW 00:49:44 10° SSW
Cosmos 2219 3.6 00:40:04 10° NW 00:45:50 71° NE 00:51:31 10° SE
Cosmos 2227 Rocket 3.0 00:41:01 10° NW 00:46:38 55° NE 00:52:14 10° ESE
deb Chang Zheng 4 4.2 00:42:40 10° N 00:46:49 42° WNW 00:49:43 18° WSW
Cosmos 2297 3.8 00:42:43 18° SW 00:47:02 70° NW 00:52:47 10° NE
Cosmos 1340 2.9 00:43:46 10° NNW 00:47:35 72° ENE 00:51:23 10° SSE
ATLAS 5 CENTAUR R/B 2.6 00:47:02 17° SSW 00:48:50 43° SE 00:54:29 10° ENE
Timation 2 Rocket 4.0 00:43:15 10° NW 00:49:12 54° WSW 00:55:01 10° SSE
IDEFIX/ARIANE 42P 3.1 00:48:44 10° NNE 00:54:00 62° ESE 00:59:13 10° S
Cosmos 1814 Rocket 4.1 00:50:16 16° SW 00:54:18 62° NW 00:59:31 10° NNE
Cosmos 1933 4.2 00:51:56 18° WSW 00:54:20 34° WNW 00:58:05 10° N
Cosmos 2297 Rocket 2.8 00:52:09 10° NW 00:57:49 63° NE 01:03:25 10° ESE
CZ-4B R/B 3.2 00:57:59 16° W 00:58:14 16° W 01:00:30 10° NW
Cosmos 2369 Rocket 2.5 00:55:22 10° SSW 01:01:02 69° SE 01:06:42 10° NE
NOSS 3-2 (A) 3.8 00:57:20 12° SW 01:02:59 67° SE 01:09:58 10° ENE
Cosmos 1606 3.5 01:00:44 16° SW 01:03:23 34° WNW 01:07:00 10° N
Cosmos 2026 Rocket 4.2 00:58:16 10° S 01:04:34 79° E 01:10:59 10° NNE
ADEOS II 2.5 00:59:40 10° NNE 01:04:41 46° WNW 01:09:24 12° SW
NOSS 3-2 (C) 4.1 00:59:41 10° SSW 01:05:38 56° SE 01:12:28 10° ENE
ATLAS CENTAUR R/B 1.9 01:01:00 10° WNW 01:05:48 73° NNE 01:10:14 10° ESE
COSMOS 2487 3.6 01:03:57 10° NW 01:06:42 22° WSW 01:09:27 10° SSW
Cosmos 2228 Rocket 4.0 01:03:46 14° WSW 01:07:02 33° WNW 01:11:08 10° N
ATLAS 3B R/B 3.3 01:04:03 10° SSW 01:10:24 50° SE 01:16:45 10° ENE
Cosmos 2344 4.0 01:03:58 10° SW 01:11:29 70° SE 01:20:35 10° ENE
Meteor 1-11 Rocket 3.7 01:06:32 10° NNW 01:12:09 63° W 01:17:38 10° S
USA 81 4.2 01:08:07 10° S 01:13:24 82° E 01:18:44 10° N
Cosmos 2263 Rocket 3.8 01:08:47 10° NW 01:13:54 33° NNE 01:19:00 10° E
Resurs 1-4 Rocket 3.5 01:10:59 10° N 01:15:03 23° NW 01:19:07 10° W
Meteor 1-10 Rocket 4.5 01:09:20 10° S 01:15:17 83° ESE 01:21:17 10° NNE
CZ-2D R/B 4.1 01:15:13 10° N 01:19:00 36° WNW 01:22:42 10° SW
Cosmos 1607 4.4 01:13:00 10° WNW 01:19:07 62° NNE 01:25:17 10° E
S3M 4.0 01:13:22 10° NNW 01:19:32 82° W 01:25:45 10° S
Cosmos 841 Rocket 4.0 01:14:59 12° WSW 01:19:38 47° NW 01:24:43 10° NNE
Cosmos 1689 Rocket 4.2 01:19:30 12° W 01:19:43 12° W 01:20:58 10° WNW
Cosmos 1862 Rocket 3.8 01:15:36 10° S 01:20:05 79° E 01:24:37 10° NNE
Cosmos 1500 3.3 01:16:26 10° NNW 01:20:06 51° W 01:23:45 10° S
Cosmos 1818 3.9 01:18:37 10° WNW 01:24:08 72° NNE 01:29:36 10° ESE
Cosmos 2278 Rocket 3.3 01:19:41 10° W 01:24:53 35° NNW 01:30:07 10° NE
USA 267 3.7 01:20:41 10° SE 01:26:55 45° SSW 01:33:10 10° W
H-2A R/B 2.3 01:23:33 10° NNE 01:27:28 84° ESE 01:31:19 10° SSW
Cosmos 1315 Rocket 3.4 01:28:51 10° S 01:32:57 64° ESE 01:37:05 10° NNE
Okean 2 Rocket 4.0 01:30:40 10° N 01:35:10 57° ENE 01:39:38 10° SSE
Iridium 4 Rocket 3.4 01:34:40 10° SSW 01:38:55 44° WNW 01:42:57 10° N
Cosmos 1782 3.7 01:37:14 10° SW 01:40:48 32° WNW 01:44:25 10° N
Cosmos 1908 Rocket 3.7 01:37:19 10° NNW 01:41:32 51° W 01:45:44 10° S
Cosmos 1743 3.2 01:37:50 10° N 01:41:46 70° ENE 01:45:39 10° SSE
Okean 1-7 4.2 01:38:04 10° S 01:42:19 50° E 01:46:35 10° NNE
COSMO-SKYMED 1 2.6 01:38:48 10° SSE 01:43:10 89° WSW 01:47:33 10° NNW
